Wind_Speed
13 14 15 15 16 16 17 17 17 18 18 15 14 14 13 12 11 11 12 12 13 13 13 13 14 14 15 17 18 18 18 18 19 20 21 22 22 21 21 21 20 19 19 18 17 16 15 15 13 13 13 12 12 12 11 10 8 7 7 7 6 6 6 5 5 6 7 6 6 6 5 5 7 6 5 5 4 5 4 4 4 3 3 3 3
9 11 13 15 16 16 16 16 16 18 17 15 15 15 14 13 12 11 11 12 13 12 12 13 14 15 15 16 17 17 18 18 19 20 21 21 21 21 21 22 21 20 19 19 17 16 16 15 14 14 13 13 12 12 12 10 8 8 8 8 8 8 7 6 6 8 9 8 8 7 6 6 8 8 7 7 7 5 5 6 6 5 5 5 4
5 8 11 13 14 14 14 15 15 16 16 15 15 15 15 14 13 13 12 12 13 13 13 14 14 15 15 15 16 16 17 19 20 20 20 20 20 20 21 22 21 20 20 19 18 18 17 16 15 15 14 14 13 13 13 11 10 10 10 9 9 9 8 8 8 9 10 10 9 9 8 8 9 9 8 9 9 7 7 8 7 7 7 7 7
3 6 8 8 9 10 11 12 13 14 14 14 15 16 15 14 14 14 14 14 14 14 14 14 14 15 15 15 15 16 16 18 19 20 20 21 21 21 22 22 21 21 21 20 20 19 18 17 16 16 15 14 13 13 14 13 12 11 11 10 10 10 10 9 10 10 11 11 11 10 10 9 9 10 9 10 10 8 8 9 8 8 8 8 8
3 5 6 5 5 7 9 10 12 13 13 13 14 15 15 14 15 15 15 16 15 15 14 14 14 15 15 14 15 15 15 16 17 18 19 21 22 22 23 23 22 22 22 22 21 20 19 18 16 16 15 14 14 14 14 14 14 13 12 11 12 11 11 11 12 11 11 13 12 11 10 10 10 11 11 10 9 8 9 10 10 9 9 9 9
3 4 5 4 5 6 7 10 12 13 13 15 16 16 15 16 17 17 17 16 16 17 16 14 14 15 15 15 15 15 15 15 16 18 18 20 21 22 23 24 23 23 23 23 22 21 20 19 18 17 16 15 14 14 15 15 16 15 14 13 13 13 12 13 14 13 12 14 14 11 11 11 11 12 12 11 10 9 10 11 11 11 10 10 10
3 4 5 6 6 7 9 11 12 13 14 16 17 17 16 16 17 18 17 16 16 16 16 15 16 16 16 15 16 16 16 16 17 18 19 20 21 22 23 24 24 24 24 24 23 23 22 21 20 19 17 16 15 15 15 16 17 17 16 15 15 14 14 15 14 13 13 14 14 13 12 11 11 12 11 11 10 10 10 11 12 12 12 11 11
4 5 5 6 7 7 9 10 11 13 14 16 16 17 17 16 17 17 18 17 16 15 16 17 17 17 15 15 16 17 18 18 18 19 20 21 22 22 23 24 24 25 25 24 23 23 22 22 21 20 19 18 17 17 17 18 19 18 17 17 16 16 16 16 15 13 14 14 15 14 13 12 12 12 11 10 11 10 11 12 13 14 13 13 12
6 6 6 6 6 7 8 9 10 11 13 15 16 16 17 17 17 17 18 18 16 15 16 17 17 17 16 17 17 18 18 19 19 20 22 22 23 23 23 24 25 26 25 24 24 24 23 22 22 21 20 20 19 19 19 19 20 19 19 18 17 17 17 17 16 15 15 16 16 16 15 14 14 14 13 12 12 11 11 11 13 14 15 15 14
5 5 6 6 7 7 8 9 10 11 12 13 13 13 14 14 15 15 16 17 16 16 17 18 18 17 16 17 18 19 19 20 20 21 22 23 24 24 24 24 25 26 26 26 25 25 25 24 23 23 23 23 23 22 22 21 21 21 21 20 19 19 18 18 18 18 17 17 17 18 17 17 17 17 16 15 14 13 12 12 14 15 16 17 16
3 4 5 5 6 7 8 9 9 10 11 11 12 12 12 12 12 13 13 14 16 18 19 20 19 18 16 17 18 19 20 21 22 22 23 23 24 24 24 24 24 25 26 27 27 27 27 26 25 25 26 26 26 25 24 23 23 22 22 22 22 21 20 19 19 20 20 19 20 20 20 20 19 19 19 18 18 17 16 16 17 17 17 18 18
4 5 5 5 6 6 7 8 8 9 10 11 12 12 12 12 12 12 12 13 14 17 19 20 20 19 18 18 18 19 21 22 24 24 24 23 23 23 23 23 24 25 26 27 27 27 27 27 27 27 27 27 27 27 26 25 24 24 24 24 24 23 23 22 21 22 22 22 22 22 22 21 21 21 21 21 21 21 21 19 19 18 19 19 19
7 7 7 7 6 7 7 8 8 9 10 11 12 12 12 12 12 12 13 12 13 15 17 19 20 21 21 21 20 20 21 22 24 25 24 23 23 23 23 23 24 25 26 27 27 28 27 27 28 28 28 28 27 27 27 26 26 26 26 26 26 26 25 24 24 24 24 24 25 24 23 22 23 22 22 23 24 24 23 22 21 21 22 21 21
8 9 9 8 8 8 8 8 9 9 10 11 11 12 12 12 12 13 13 13 14 15 17 18 18 20 21 22 23 22 22 22 23 24 24 24 24 24 24 24 24 25 26 26 27 28 28 29 29 29 29 29 29 29 28 28 28 28 28 28 28 27 27 26 26 26 26 27 27 26 25 25 24 23 24 25 25 25 25 24 24 24 24 24 24
8 9 9 8 8 9 9 9 9 10 11 12 11 12 12 13 13 14 15 15 16 17 17 18 18 19 20 21 22 23 23 24 24 24 25 25 25 26 25 25 25 25 25 26 27 29 29 29 30 29 29 30 30 30 30 29 29 29 29 29 29 29 28 28 28 28 29 29 28 28 27 27 27 27 26 26 26 27 27 26 25 26 27 27 26
7 8 8 8 9 10 10 10 10 10 11 12 12 12 13 13 14 15 16 17 18 18 18 19 19 19 19 20 21 22 24 25 25 26 26 26 26 26 27 27 26 26 26 26 28 28 28 29 30 30 29 30 30 30 30 30 30 30 29 29 29 29 29 29 30 30 30 30 29 29 29 30 31 29 26 26 27 28 28 28 27 28 29 29 28
6 7 7 8 8 9 9 10 10 11 11 12 12 12 13 14 14 15 17 17 18 19 19 20 20 20 21 21 21 22 23 24 26 27 28 28 27 27 27 28 28 28 28 28 27 26 26 29 31 30 29 30 30 30 30 31 31 30 29 29 30 30 30 30 30 30 31 32 32 32 31 33 33 31 27 27 29 30 31 30 29 28 29 30 30
6 7 8 8 8 8 9 9 10 10 11 12 12 13 13 14 14 15 16 17 18 19 19 20 21 21 21 22 22 23 23 23 25 26 27 29 29 29 29 28 28 30 31 30 29 27 28 30 30 30 30 31 31 30 30 31 31 31 30 31 32 32 31 31 31 31 31 32 33 33 33 34 34 33 31 30 31 32 32 30 29 29 30 30 31
6 6 7 8 8 9 9 9 9 10 11 12 12 13 14 14 15 16 17 17 18 19 19 20 20 21 21 22 22 23 23 23 24 25 25 27 28 29 30 30 29 30 30 30 29 29 30 30 31 31 31 31 31 31 31 32 33 32 31 32 32 31 30 30 31 31 31 32 32 32 33 34 34 34 33 33 34 34 32 31 31 30 30 31 31
6 6 6 7 8 9 9 10 10 11 11 12 12 13 14 14 15 16 17 18 18 19 20 20 20 20 21 21 21 22 22 23 23 24 24 26 27 28 29 29 30 31 31 30 29 29 30 30 31 31 31 31 32 32 33 33 33 33 32 32 32 31 30 30 31 31 32 33 33 33 33 35 35 36 35 35 36 35 32 31 32 31 31 32 32
6 7 7 7 7 8 9 10 11 11 12 13 13 13 14 15 16 16 17 18 19 20 20 20 20 20 20 21 21 21 21 22 22 22 23 24 25 26 27 28 29 30 31 32 31 31 30 29 29 29 29 30 31 32 32 32 32 32 33 34 34 33 31 31 32 33 33 33 33 34 34 35 35 34 34 34 36 35 32 30 31 32 29 27 28
7 8 8 7 8 8 9 10 11 12 12 13 13 13 14 14 15 16 17 18 19 20 20 20 20 20 21 21 21 21 21 21 22 22 23 23 23 24 25 26 27 28 29 30 31 31 31 31 30 29 29 29 29 29 29 30 30 31 31 32 32 32 31 31 31 32 32 32 32 32 32 32 32 31 30 31 32 32 31 29 28 27 22 18 18
9 9 8 8 8 8 9 10 11 11 12 12 12 13 13 13 13 14 16 17 18 19 19 20 21 21 22 22 22 22 22 22 22 23 23 24 24 24 24 25 26 27 27 28 29 29 30 31 31 30 30 29 28 28 28 28 29 29 30 30 30 30 29 29 30 30 31 31 30 30 29 29 29 29 29 29 28 28 28 27 26 24 21 19 18
9 9 9 8 8 9 9 10 10 11 11 11 11 11 12 12 12 13 15 16 18 19 19 20 21 22 23 23 23 22 22 23 24 24 23 24 24 25 26 26 26 26 26 27 28 28 29 29 30 30 31 31 30 29 29 29 29 29 30 30 30 30 30 29 29 29 30 30 30 30 29 29 29 29 29 29 28 27 27 27 26 24 23 22 22
9 9 9 8 9 9 9 10 10 10 10 10 10 10 11 11 12 13 14 16 17 18 19 20 21 21 22 22 23 23 23 23 23 23 24 24 24 25 26 26 27 27 27 27 27 28 28 28 29 29 29 29 28 27 26 26 26 27 28 28 29 30 30 30 29 29 29 30 30 29 29 28 28 27 27 28 27 27 26 26 25 25 25 24 23
9 9 8 8 8 9 9 10 10 9 9 9 10 10 10 11 11 12 13 15 16 17 18 19 20 21 21 21 21 21 21 21 22 22 23 22 22 23 24 25 26 26 27 27 27 27 27 27 27 27 26 25 24 24 24 25 25 25 26 26 27 27 28 28 28 28 27 27 27 27 27 27 26 26 26 26 26 26 26 25 24 23 22 19 16
9 9 8 8 8 8 9 9 8 8 9 9 8 9 9 10 10 11 12 13 14 14 15 16 17 17 18 18 18 18 18 18 19 19 20 20 21 21 22 23 24 24 25 25 25 26 27 26 26 25 25 25 25 25 25 25 25 25 24 24 24 24 24 24 24 25 25 25 25 25 25 25 25 25 24 24 23 22 21 19 16 13 10 8 6
9 8 8 7 8 8 8 8 8 8 8 7 7 7 7 8 9 10 10 10 11 11 12 12 13 13 13 13 13 14 14 15 15 15 16 17 18 18 19 20 21 21 22 23 23 24 25 25 25 25 25 25 24 24 23 23 22 22 21 21 21 21 21 21 21 22 22 22 22 22 22 21 21 20 19 18 16 13 10 8 6 5 5 5 5
8 7 7 7 7 7 7 7 8 8 7 6 6 6 6 7 7 8 9 8 8 9 9 10 10 10 10 9 9 9 10 11 11 10 11 11 12 13 15 16 17 17 19 19 20 20 21 21 22 22 22 21 21 20 20 19 18 18 17 17 17 16 16 16 16 16 17 16 16 16 16 15 14 13 10 7 5 3 2 4 5 5 6 7 8
6 5 5 6 7 7 7 7 8 8 7 6 6 6 6 6 7 7 8 8 9 9 9 8 8 8 8 7 7 6 6 6 7 6 5 5 6 8 9 9 10 12 13 14 14 15 15 15 16 16 16 16 15 15 14 14 13 13 12 12 12 11 11 11 11 12 12 12 12 12 10 8 6 3 3 4 4 4 4 4 5 6 8 10 11
5 4 5 6 6 7 7 8 8 7 7 6 5 5 6 6 7 8 9 10 11 10 9 8 7 7 6 6 5 5 4 3 2 2 1 1 2 3 3 4 4 5 6 7 8 8 8 9 9 9 10 9 9 9 9 9 9 9 9 9 9 9 8 8 8 8 8 8 6 5 3 3 4 6 6 6 5 5 5 6 7 9 10 10 9
4 4 4 5 5 6 7 7 8 8 7 6 4 4 5 5 6 9 10 11 11 10 10 9 8 6 5 4 3 3 2 2 2 1 1 1 0 1 1 1 1 2 2 3 2 3 3 4 4 5 5 5 6 6 6 7 7 7 8 8 7 6 6 5 5 4 3 3 4 6 7 7 7 6 5 4 5 6 6 6 6 5 5 6 8
4 3 4 5 5 6 7 7 8 9 7 6 5 4 4 4 5 6 7 8 9 10 10 11 9 8 8 8 9 9 8 8 7 5 4 3 1 1 1 1 1 1 2 3 2 2 2 3 3 2 2 1 1 1 1 2 3 3 4 4 3 2 2 2 2 4 6 8 9 8 7 5 4 3 3 3 5 5 6 8 9 10 11 12 14
3 2 3 4 4 5 6 7 8 8 7 7 6 4 3 3 2 2 3 4 5 7 8 9 9 9 10 11 13 14 14 14 14 13 12 10 7 4 2 2 2 3 3 4 5 5 5 5 7 8 8 9 9 9 8 7 7 6 5 4 4 4 4 4 6 7 8 9 8 6 4 4 4 6 7 10 12 12 12 11 11 11 11 11 11
3 3 3 3 3 4 5 6 8 8 8 8 7 5 4 3 3 3 3 3 3 4 4 5 6 7 8 9 10 11 12 13 14 14 14 14 13 11 11 10 10 10 10 11 12 13 13 14 14 14 13 12 11 11 10 10 10 11 11 11 10 10 9 9 9 9 9 9 8 7 8 8 10 11 11 11 10 9 8 7 7 7 7 7 7
4 4 3 2 2 3 4 5 7 8 9 9 8 7 6 5 4 4 4 4 4 5 5 4 3 3 4 5 7 8 10 10 11 11 11 11 11 11 12 12 13 13 14 15 14 14 13 13 12 10 9 8 8 8 8 8 8 9 10 11 12 12 12 12 12 12 12 12 12 11 11 10 10 9 8 7 6 6 6 6 6 6 5 5 5
6 5 3 2 2 3 4 5 8 9 9 9 8 8 8 7 6 5 5 4 5 5 5 5 4 3 3 3 4 6 7 7 8 8 8 8 8 8 8 8 9 9 9 9 9 8 7 7 7 6 6 6 6 7 7 7 7 7 8 9 9 10 10 10 10 10 10 10 10 10 9 8 7 6 6 5 5 5 5 5 4 4 3 4 4
7 6 4 3 2 3 4 6 9 10 9 9 9 9 10 9 8 7 6 5 5 5 5 5 4 4 3 3 3 4 5 5 5 5 6 6 6 6 6 5 6 6 5 5 4 4 5 5 5 4 4 4 5 5 5 5 5 6 6 6 6 6 7 7 7 7 7 7 7 7 7 6 6 6 5 5 4 4 4 3 3 2 2 3 3
9 7 5 3 2 3 4 7 10 11 11 10 10 11 11 10 9 8 7 6 6 5 5 5 5 4 3 2 2 2 2 3 3 4 4 4 4 4 4 3 3 3 3 3 3 3 3 3 3 3 3 3 3 3 3 4 4 4 4 4 4 4 5 5 5 5 5 5 4 4 4 4 4 4 4 3 3 3 3 3 2 2 1 1 1
10 8 5 3 3 4 5 8 11 12 12 11 12 12 12 11 10 9 8 8 7 6 6 6 6 5 4 3 2 2 2 2 2 2 2 2 2 2 2 2 1 1 1 1 1 1 1 1 1 1 1 1 1 1 2 2 2 3 3 3 3 3 3 3 4 4 4 4 4 3 3 3 3 3 3 3 3 3 3 2 3 2 2 2 1
11 8 6 4 4 5 7 9 11 13 13 12 12 13 13 11 11 10 9 8 8 7 8 8 7 6 5 4 3 3 3 3 2 2 2 2 2 2 2 1 1 1 2 1 1 1 1 1 1 2 2 1 1 1 1 1 1 1 1 2 2 2 2 3 3 3 3 3 3 3 3 3 3 2 3 3 3 3 2 2 2 2 2 1 1
11 9 7 5 5 6 8 10 11 13 14 13 12 13 13 12 11 10 9 9 8 8 9 9 9 8 7 6 5 4 4 3 3 3 3 3 3 3 2 2 2 3 3 3 3 3 3 3 3 3 3 2 2 2 2 2 2 2 2 2 2 2 2 2 2 2 3 3 2 2 2 2 1 1 2 1 1 1 2 1 1 2 2 2 2
12 10 8 7 6 7 8 10 12 13 13 13 13 13 14 14 12 11 10 9 9 9 9 10 10 9 9 8 8 7 6 5 5 4 4 4 4 3 3 4 4 4 4 4 4 4 5 5 4 4 4 4 4 4 4 4 4 3 3 3 2 2 2 2 2 3 3 3 2 2 2 1 1 1 1 1 2 2 3 3 3 3 3 3 3
13 11 9 9 8 8 9 10 11 12 12 13 13 13 14 15 14 13 12 11 10 9 10 12 13 12 11 10 10 9 8 8 7 6 7 6 5 4 4 5 6 6 6 6 5 6 6 5 5 5 5 5 6 5 5 5 4 4 4 4 4 3 3 4 4 4 3 3 3 3 2 2 2 2 2 2 2 3 3 4 4 4 4 4 4
14 12 11 10 10 9 9 10 10 11 12 13 13 13 14 15 15 15 14 14 12 11 11 13 14 14 13 13 12 11 11 10 9 9 9 8 7 6 6 7 8 7 7 7 7 7 7 7 6 7 7 7 6 6 6 5 5 5 6 6 5 5 5 5 5 5 4 4 4 4 3 3 3 3 3 3 3 4 4 5 5 5 5 5 5
15 13 12 11 11 11 11 10 10 11 11 12 13 13 14 14 15 16 17 16 15 14 13 13 14 15 15 15 14 13 12 12 11 11 11 10 9 9 9 9 9 8 8 8 9 9 9 9 8 8 8 7 7 7 6 7 7 7 6 6 6 6 5 5 6 6 5 5 5 5 4 4 4 4 4 4 5 6 6 6 6 7 7 7 7
16 14 13 13 13 13 12 11 11 10 11 11 12 13 14 14 15 16 17 17 17 15 14 13 14 15 16 16 15 15 14 13 12 12 12 12 11 11 12 12 11 10 10 10 10 10 10 11 10 10 9 8 8 7 7 7 7 7 6 6 6 7 7 7 7 7 6 6 5 5 5 5 6 6 6 6 7 8 8 8 8 8 8 9 9
16 15 13 13 14 14 13 12 11 10 10 11 12 13 14 15 15 16 18 18 17 15 14 14 15 16 16 16 16 16 15 14 13 13 14 14 13 13 13 13 13 12 12 12 12 12 12 12 12 11 10 10 9 9 8 8 8 8 8 7 7 8 8 8 8 9 8 7 7 7 7 7 8 8 8 8 9 10 10 10 9 10 10 10 11
17 15 14 13 13 13 13 12 11 10 10 11 13 13 14 15 16 17 18 18 17 15 14 14 15 16 15 16 16 16 15 15 15 15 15 15 15 15 15 15 15 15 14 14 14 14 14 14 13 13 12 12 11 10 10 10 9 9 9 9 9 9 9 9 10 10 10 9 9 9 10 10 10 11 11 11 11 11 11 11 11 11 12 13 13
16 15 14 13 13 13 12 11 11 11 11 12 13 14 15 16 17 19 20 19 18 16 14 15 15 15 14 14 14 14 14 14 13 13 14 15 16 16 15 15 15 15 16 16 17 16 16 15 14 14 14 14 13 13 12 12 12 11 11 11 11 11 11 11 11 11 11 11 11 11 12 12 12 13 13 14 14 14 13 13 13 14 14 15 15
16 15 14 14 14 13 12 11 12 12 12 12 13 14 15 16 17 19 20 20 18 16 15 14 14 13 12 12 12 12 12 11 10 10 12 14 14 13 13 12 13 13 14 16 17 18 17 16 15 15 16 15 15 14 14 13 13 13 13 12 12 12 12 12 13 12 12 12 13 13 13 14 14 14 15 16 16 17 17 17 16 16 16 16 16
Wind_Direction
247 240 234 225 220 219 221 223 222 216 213 217 222 225 227 228 232 238 240 238 233 229 228 226 222 217 216 218 220 221 220 220 221 222 223 221 217 218 221 225 227 228 230 233 234 236 239 242 245 250 251 248 247 248 249 253 256 257 256 257 263 269 275 280 280 280 285 289 290 291 298 295 289 287 287 291 292 283 282 284 277 278 289 289 291
254 237 224 216 215 216 216 217 217 213 215 218 222 226 229 229 230 233 237 237 234 229 228 230 229 222 216 215 218 222 223 223 224 225 225 222 217 215 218 222 226 227 229 230 232 234 236 239 242 245 245 243 244 248 251 252 252 250 249 250 254 257 261 270 275 274 275 279 286 290 293 294 293 294 293 288 282 274 274 271 262 261 270 274 279
247 221 211 210 216 216 212 212 211 209 212 218 223 227 231 234 235 235 236 238 234 230 227 228 231 228 221 217 217 219 223 225 225 225 225 224 220 216 217 220 222 225 228 228 228 231 234 235 238 240 241 240 241 246 251 251 245 242 243 247 252 254 257 266 273 272 272 275 280 285 289 296 298 297 294 287 281 273 272 271 263 260 268 273 278
209 205 208 212 217 215 210 211 210 208 212 220 228 231 230 232 236 238 239 240 236 233 231 229 232 233 227 223 222 221 224 227 228 226 225 223 221 218 216 218 219 221 224 225 227 229 231 231 233 235 237 238 239 243 248 250 247 243 244 247 251 252 255 264 268 268 270 272 274 280 287 291 292 290 287 285 284 276 271 274 271 267 272 276 278
178 188 201 205 203 207 215 221 219 216 220 229 237 239 237 236 236 237 238 239 239 238 235 232 234 236 232 228 227 226 226 228 230 229 227 225 223 220 217 216 217 219 220 221 224 228 229 229 230 233 234 235 238 242 246 250 251 249 249 250 250 249 252 260 262 262 266 270 272 277 284 285 283 284 284 284 284 278 273 275 274 269 271 274 274
201 199 205 204 205 217 230 233 229 225 228 235 239 244 248 244 238 235 236 239 242 240 237 234 233 234 232 228 227 228 226 226 228 228 227 226 226 225 221 218 217 218 217 218 220 225 228 228 229 232 232 232 235 239 243 248 251 249 248 249 249 249 251 256 257 259 264 271 275 278 280 281 283 285 287 285 282 280 277 273 268 265 266 268 268
218 223 218 213 218 227 234 237 235 232 232 234 238 243 246 244 241 241 241 242 242 237 235 236 235 232 231 229 228 228 226 225 227 227 225 224 225 227 227 225 223 220 218 217 218 221 224 225 226 228 229 229 231 234 239 245 248 249 250 251 251 251 251 252 253 256 261 267 273 276 277 277 279 283 286 284 282 284 280 269 262 261 263 263 262
235 239 229 221 220 220 225 230 233 233 234 237 241 243 242 242 242 242 242 241 242 240 238 240 240 238 236 236 234 231 228 227 227 227 225 225 225 226 227 227 227 226 223 221 221 222 224 224 224 224 226 228 230 233 237 242 246 248 250 251 253 253 253 253 254 258 261 264 269 272 274 275 277 279 282 282 281 281 278 270 262 260 261 261 258
236 241 241 237 232 224 223 225 227 231 233 237 241 242 239 238 237 237 240 242 242 243 244 244 244 243 241 239 238 235 232 231 229 228 228 229 228 227 227 226 228 229 228 225 224 226 227 228 227 227 228 230 232 233 236 240 245 249 251 252 253 253 254 256 256 256 258 262 265 267 270 273 275 275 276 277 275 273 272 269 265 262 262 261 260
228 232 234 236 235 233 231 230 229 230 231 233 236 239 241 241 240 242 247 246 241 237 241 245 246 246 244 240 239 237 235 233 232 231 232 232 231 230 229 228 228 229 229 227 227 228 229 230 230 229 230 232 234 235 236 238 242 247 252 254 255 255 256 258 259 259 259 260 263 266 268 269 270 271 272 271 270 269 267 264 263 264 265 264 262
246 241 237 234 234 234 234 235 236 235 236 238 239 240 244 246 249 250 250 247 241 237 238 242 244 245 244 243 241 238 235 234 235 236 235 234 233 232 233 232 231 230 229 229 230 230 230 231 231 231 231 232 234 235 236 238 241 246 250 254 258 259 259 259 262 264 264 264 264 265 266 266 267 268 270 271 272 272 269 264 265 268 270 269 266
285 276 267 259 253 248 246 245 243 241 240 241 243 245 246 246 248 250 248 245 242 239 239 241 243 244 244 244 243 240 238 237 239 241 240 237 236 235 236 236 234 233 232 232 231 231 232 233 235 235 235 235 236 237 238 239 242 245 249 252 256 259 260 261 261 262 264 265 265 264 265 266 266 267 269 270 270 270 269 269 270 271 270 269 268
296 293 287 283 276 271 267 261 255 252 248 246 247 249 249 248 247 248 248 247 244 242 243 244 245 245 244 243 243 242 241 240 241 245 246 243 239 238 238 238 239 239 238 237 234 232 233 235 237 239 240 241 241 241 241 242 244 247 250 252 254 257 259 262 263 263 264 265 265 265 265 264 264 265 266 266 265 267 270 272 272 271 268 267 267
290 289 287 286 281 277 274 268 264 260 257 256 255 254 253 252 250 248 248 247 246 245 245 245 246 245 245 244 243 243 243 243 243 245 248 246 243 240 239 239 240 242 243 242 239 236 235 236 238 241 243 245 245 245 245 245 247 249 251 253 255 257 259 262 263 265 266 266 266 267 266 264 265 265 265 266 267 269 269 270 270 270 270 269 269
281 281 281 278 272 268 266 264 262 262 261 262 261 259 257 254 252 250 249 248 247 247 247 247 248 247 247 247 246 245 244 243 242 243 245 245 244 243 243 242 242 242 242 242 241 239 237 238 240 243 246 247 248 249 249 250 251 251 252 254 256 258 259 260 261 264 265 266 267 268 268 267 266 264 264 267 270 272 272 271 270 269 270 272 273
284 281 275 268 264 263 261 259 258 258 261 264 264 262 259 257 256 254 253 252 251 251 251 251 251 251 250 250 249 248 246 244 243 242 243 244 244 244 245 246 245 244 242 242 242 242 243 244 244 245 247 249 250 251 252 254 254 253 253 255 257 258 259 260 261 263 265 266 267 268 268 266 265 263 264 268 273 275 275 273 271 268 268 269 270
295 288 279 271 266 262 260 259 258 259 262 264 264 263 261 261 259 258 257 257 256 256 256 255 255 254 253 252 251 250 248 246 244 243 243 244 244 244 245 246 245 244 244 244 244 245 245 246 247 248 249 250 251 252 254 255 254 253 254 256 258 259 260 260 261 261 263 265 267 268 268 267 268 269 270 273 275 274 272 273 275 274 270 268 268
302 296 291 286 278 272 268 264 262 263 264 264 265 266 264 263 261 260 259 259 259 259 258 257 256 256 255 255 254 253 252 250 248 247 245 244 243 243 244 244 245 245 245 246 246 245 244 247 250 251 252 252 252 252 254 255 254 254 256 257 258 259 259 259 259 259 261 263 265 267 269 270 273 274 274 273 271 269 268 270 273 274 274 272 271
304 296 291 287 285 282 280 275 271 268 266 266 266 266 265 265 263 262 262 262 261 260 259 258 258 257 255 254 254 254 253 252 251 251 249 248 246 244 243 243 244 244 246 246 246 246 246 248 250 251 251 253 253 252 253 253 254 255 257 257 258 258 258 258 259 259 261 262 263 265 267 270 272 274 274 274 272 271 273 275 274 273 273 273 272
302 294 286 281 279 278 277 278 277 275 273 272 269 268 267 266 264 264 264 264 264 263 262 261 260 260 259 257 255 253 252 252 252 251 251 250 250 248 247 245 244 243 245 245 245 245 246 247 248 248 248 249 250 250 251 252 253 255 256 257 257 257 257 258 259 260 261 262 263 264 267 269 270 272 273 273 273 274 275 276 276 274 273 272 270
301 295 290 284 279 278 277 277 278 277 277 276 273 272 271 269 269 269 268 267 267 266 266 265 264 263 262 261 259 257 254 252 251 250 250 250 250 250 249 248 246 245 245 245 244 244 246 246 247 247 248 248 249 251 253 254 256 256 257 257 258 258 259 259 260 261 262 264 265 267 269 270 270 270 271 272 274 274 273 271 272 274 274 270 266
302 299 298 294 288 284 281 279 278 278 277 276 274 273 272 272 272 272 272 271 270 270 270 270 268 266 263 262 261 260 258 256 253 251 249 248 248 248 248 248 248 248 247 247 245 244 246 248 250 251 251 251 253 254 254 255 256 257 257 258 259 260 261 261 262 263 264 266 267 268 269 271 270 270 270 271 273 274 274 273 274 278 283 280 273
304 305 306 304 297 290 286 284 283 281 279 279 278 278 277 276 275 274 273 273 273 273 273 272 270 269 267 264 263 261 259 257 254 252 250 248 246 246 246 247 248 248 247 248 248 247 248 249 251 251 252 252 254 254 255 255 256 258 259 260 260 262 262 262 262 263 264 265 266 267 268 269 270 270 271 271 271 271 272 273 274 277 282 282 279
306 309 311 308 301 296 293 291 288 285 284 283 282 281 281 281 280 278 277 276 276 276 275 273 272 270 269 268 266 264 261 258 256 254 251 248 246 244 243 243 245 247 246 246 247 248 249 249 250 250 250 252 254 255 257 258 260 261 261 261 261 261 262 262 262 262 263 264 266 267 267 267 268 268 269 270 271 271 271 272 273 274 274 275 276
306 312 314 311 305 302 298 294 290 288 289 291 292 292 292 292 291 288 284 281 279 278 277 276 275 274 273 272 271 269 265 262 260 257 254 251 247 245 244 242 242 243 244 245 246 247 248 249 250 251 252 254 256 257 259 259 259 259 259 258 259 260 261 262 263 263 264 265 267 268 269 269 268 268 269 270 272 273 274 274 274 274 273 275 279
307 312 313 309 306 303 298 294 293 295 297 298 299 299 300 299 296 292 287 283 281 278 278 278 276 276 276 275 274 273 271 267 263 260 257 255 251 248 246 245 244 243 243 244 245 245 246 248 250 252 253 255 256 257 257 258 258 259 259 260 261 261 263 264 265 266 266 267 268 269 270 270 271 270 270 271 272 273 274 275 275 275 277 279 284
306 309 307 304 302 300 295 293 295 293 290 291 293 297 300 302 300 298 294 289 286 282 280 279 278 278 278 277 275 274 271 268 264 260 257 255 252 249 248 247 246 244 243 243 243 243 245 246 248 250 251 253 255 257 259 260 261 262 262 262 263 263 264 265 266 267 267 267 267 267 267 268 268 268 268 268 267 268 271 274 276 276 274 272 268
303 303 301 300 299 297 294 290 284 278 276 282 292 298 305 311 311 309 306 302 299 295 291 288 286 284 283 281 279 276 272 269 266 260 255 252 250 249 249 249 246 245 244 243 242 242 244 246 248 251 253 256 258 259 260 261 261 261 262 263 263 263 264 264 264 263 263 263 263 263 263 264 265 265 264 262 261 263 267 269 262 246 233 227 216
301 298 296 298 298 296 288 277 271 270 275 288 303 312 324 333 330 324 320 319 320 318 314 309 305 301 299 296 292 287 282 277 272 265 257 251 245 242 247 251 249 246 246 245 245 246 247 250 252 254 256 258 259 260 261 262 262 263 263 263 261 259 258 256 256 256 256 256 257 258 259 260 262 262 257 250 250 246 205 199 209 216 221 223 222
300 299 302 305 302 294 281 272 270 272 279 293 311 327 340 349 349 345 343 345 346 345 340 333 327 323 320 317 315 309 300 290 283 277 267 258 247 242 246 250 247 245 246 247 248 249 250 252 254 255 257 259 261 262 263 262 262 262 260 258 257 255 253 251 251 252 251 251 253 253 249 248 252 240 179 155 152 152 166 194 215 230 236 237 236
299 310 319 318 309 297 287 283 280 277 280 292 316 336 342 349 2 8 7 5 2 360 359 356 351 343 336 331 329 328 329 331 322 305 287 264 246 237 236 235 232 233 234 234 237 240 241 245 248 249 252 253 254 255 257 258 260 261 261 262 262 260 259 257 254 250 248 245 243 231 190 145 129 131 137 149 170 191 217 241 248 249 249 243 234
294 314 323 323 317 308 303 296 283 277 280 289 306 328 340 354 16 24 21 16 12 13 19 22 21 17 10 5 3 2 10 38 49 53 60 58 111 163 165 176 176 173 172 173 184 199 205 211 219 225 233 240 248 257 262 265 270 272 272 273 273 269 267 263 248 230 212 166 132 125 123 125 134 151 166 189 222 237 243 240 231 222 210 188 166
288 304 313 324 326 315 308 296 279 273 276 280 287 307 337 357 20 32 31 25 23 28 36 41 42 47 56 65 68 67 65 62 61 57 51 39 12 312 277 247 152 121 122 124 122 138 172 190 198 204 208 204 209 247 259 263 269 268 267 268 264 260 261 237 175 147 127 119 122 129 137 144 153 169 173 165 163 160 147 137 132 128 130 133 130
262 266 285 309 320 308 300 289 276 269 267 270 277 287 311 334 348 5 15 16 19 28 39 45 49 57 69 76 76 73 70 67 64 60 55 52 52 60 78 110 117 116 120 121 117 117 119 117 111 106 102 98 96 94 94 96 101 107 113 120 129 138 141 138 137 134 131 135 145 152 154 146 131 123 123 127 129 129 127 126 126 127 129 131 130
228 219 254 287 307 305 298 286 274 267 263 264 269 273 280 291 292 286 291 308 324 342 5 23 38 53 63 66 64 62 62 62 61 59 56 53 56 66 80 90 97 101 103 103 102 102 103 103 102 101 100 98 96 94 94 95 98 101 104 108 112 116 120 123 126 129 133 138 141 137 134 133 131 130 131 133 135 137 138 140 143 149 153 154 153
219 208 232 266 304 306 297 281 270 264 260 261 266 269 271 273 273 274 278 280 286 294 304 316 337 13 35 43 45 46 49 53 56 58 58 56 56 63 74 84 92 96 98 99 99 98 98 100 103 105 106 105 103 100 99 99 99 101 104 106 106 107 108 108 110 113 117 120 124 129 133 136 138 139 144 149 152 152 152 156 163 169 168 163 160
219 207 214 232 275 297 293 276 266 261 256 256 262 267 268 265 265 268 272 274 277 280 286 294 303 317 342 9 28 33 38 44 49 53 58 60 60 64 70 79 88 92 95 97 99 99 97 99 104 110 110 107 105 105 106 108 109 107 107 108 108 109 110 111 114 119 124 130 136 143 147 149 151 152 156 159 158 153 154 162 169 170 167 163 165
218 208 208 207 233 276 279 271 267 264 257 251 252 260 264 264 263 265 267 267 267 268 274 284 291 300 318 344 15 26 31 39 45 50 55 57 58 60 65 73 80 85 90 95 99 101 104 110 113 112 105 99 99 104 110 113 110 104 101 104 109 118 125 132 137 141 144 148 152 156 156 157 157 157 159 161 158 154 157 165 170 173 176 175 169
220 215 214 207 217 254 263 262 265 267 263 252 246 250 258 261 261 262 263 262 262 262 265 273 281 290 302 318 345 8 19 30 42 52 57 56 56 60 65 69 72 77 88 104 111 112 113 111 105 98 92 94 101 110 116 114 112 111 114 118 127 138 146 150 151 151 152 155 158 159 159 160 161 162 161 162 163 165 165 165 166 181 199 195 177
221 221 222 217 223 245 253 255 260 266 267 261 249 245 249 254 256 258 259 259 260 261 260 263 270 278 284 294 311 328 336 347 12 41 50 48 54 66 75 72 58 38 40 60 75 74 72 75 68 52 64 95 119 135 129 117 115 120 126 134 145 153 157 158 158 161 168 171 170 172 177 180 180 175 169 174 188 197 191 175 174 190 207 212 207
219 223 228 227 229 242 248 252 257 263 268 266 255 247 247 250 251 254 258 260 260 259 259 260 262 266 271 278 285 290 297 308 320 336 359 7 8 15 23 17 347 329 330 328 318 306 297 271 250 252 256 241 207 207 191 155 148 141 137 146 160 166 165 162 161 168 179 184 181 182 188 190 186 181 183 191 201 212 217 210 206 217 229 235 240
217 222 229 229 230 239 246 251 256 261 267 270 263 251 248 250 251 253 257 259 257 257 258 258 257 259 262 264 267 270 274 280 287 295 304 311 320 334 338 319 300 298 299 294 286 277 272 268 261 258 258 255 248 243 239 231 223 220 215 208 200 191 181 173 174 184 194 200 198 194 193 196 193 193 204 215 230 256 273 283 290 297 302 301 294
218 224 230 229 227 232 240 247 254 262 270 273 269 257 250 250 252 253 255 257 256 255 258 260 259 257 258 260 262 262 260 258 260 262 262 268 283 298 302 290 284 281 281 278 272 264 260 259 257 255 255 256 253 247 239 232 226 222 221 222 222 219 213 210 210 215 218 223 225 223 224 232 242 255 273 286 295 297 299 303 307 311 314 312 305
222 227 231 231 230 231 236 245 257 266 271 272 271 264 256 253 252 252 253 255 254 252 253 256 257 256 254 255 257 257 256 255 254 252 250 251 254 256 256 261 267 271 273 273 269 263 259 255 249 243 240 240 243 243 243 242 239 234 233 235 232 226 225 229 232 234 234 236 240 244 249 254 254 258 269 278 283 286 288 292 295 298 300 300 297
222 227 231 233 233 235 239 246 257 265 268 269 270 267 261 257 255 254 253 254 252 248 243 246 250 254 254 253 253 254 255 256 255 255 255 257 256 250 245 249 255 261 264 261 257 257 257 255 249 241 235 233 233 234 233 235 234 233 236 240 240 236 236 241 244 245 243 246 249 251 253 256 254 255 262 270 273 272 275 280 286 289 289 286 283
222 227 230 231 232 236 240 246 255 263 266 266 265 263 260 256 254 254 254 254 254 251 245 241 244 250 253 254 253 253 254 255 254 254 256 258 259 257 254 254 256 258 257 254 253 254 253 251 248 246 242 238 234 229 225 226 229 231 234 240 247 249 250 252 253 252 250 249 254 258 259 260 262 264 268 272 272 272 273 277 280 282 283 282 279
224 228 229 229 231 235 239 248 257 263 265 264 262 260 258 254 251 252 254 255 256 257 255 250 247 248 251 253 253 253 253 254 255 255 255 254 254 254 253 253 253 253 253 254 255 255 253 251 250 249 248 245 243 239 234 234 237 239 240 242 247 252 253 254 257 260 261 261 263 266 267 267 268 268 267 266 266 268 271 273 275 277 278 278 277
225 229 229 228 231 235 240 250 259 263 264 263 260 258 257 254 251 252 255 256 258 260 260 257 254 253 253 254 255 255 255 254 253 252 251 251 251 252 252 252 251 249 249 250 251 251 251 252 251 250 249 248 247 246 246 246 246 247 244 242 243 248 252 254 257 261 264 265 266 267 265 265 266 268 267 264 264 266 269 270 271 272 273 274 274
224 228 228 227 232 236 241 250 260 263 262 260 258 256 255 255 254 255 256 257 258 259 259 256 255 255 256 257 257 257 256 253 250 250 250 248 248 249 251 251 251 249 247 247 247 248 249 250 249 248 247 246 246 245 245 245 245 244 244 244 243 244 247 250 253 256 258 259 259 260 261 261 262 264 266 266 267 268 270 270 270 270 271 271 273
222 225 223 224 230 236 243 253 262 262 258 255 256 256 256 254 254 255 256 257 259 258 256 254 255 256 255 255 254 254 252 250 249 248 247 246 247 249 252 253 252 249 246 244 243 244 246 248 248 247 246 246 245 244 244 244 245 246 246 247 247 247 248 249 252 255 258 259 259 259 259 259 260 262 264 267 269 269 269 267 266 266 267 269 271
219 221 220 221 229 238 245 252 258 258 255 253 254 256 256 255 252 252 253 257 259 258 254 252 252 252 251 249 249 251 253 254 252 248 244 243 244 247 249 251 251 249 246 243 242 242 243 244 244 245 245 246 246 246 246 247 249 251 251 253 253 254 255 256 256 257 259 261 262 262 262 262 263 263 264 265 266 267 266 265 263 263 264 267 270
Height
3166 3167 3168 3169 3170 3171 3172 3173 3175 3176 3177 3178 3179 3180 3180 3180 3181 3182 3182 3182 3182 3182 3183 3183 3183 3184 3184 3185 3186 3187 3188 3188 3189 3190 3191 3192 3192 3193 3194 3195 3196 3197 3198 3198 3199 3199 3200 3200 3201 3201 3201 3201 3201 3201 3202 3202 3202 3202 3202 3202 3202 3201 3201 3201 3201 3201 3200 3199 3198 3198 3197 3197 3196 3196 3195 3195 3195 3194 3194 3193 3193 3192 3192 3192 3191
3164 3165 3166 3167 3168 3169 3171 3172 3173 3175 3176 3177 3178 3179 3179 3179 3180 3181 3181 3182 3182 3182 3182 3182 3183 3183 3183 3184 3185 3185 3186 3187 3187 3189 3190 3190 3190 3191 3192 3193 3194 3195 3196 3196 3197 3198 3198 3198 3199 3199 3199 3199 3200 3200 3200 3201 3201 3201 3201 3201 3201 3201 3200 3200 3200 3200 3199 3199 3198 3197 3197 3196 3196 3195 3195 3194 3194 3194 3194 3193 3192 3192 3191 3191 3191
3163 3164 3165 3166 3167 3168 3169 3171 3172 3173 3175 3176 3177 3177 3178 3178 3179 3180 3181 3181 3181 3181 3181 3181 3182 3182 3182 3182 3183 3184 3184 3185 3186 3187 3188 3188 3189 3189 3190 3191 3192 3193 3193 3194 3195 3196 3196 3197 3197 3197 3197 3198 3198 3198 3198 3199 3199 3199 3200 3200 3200 3200 3199 3199 3199 3199 3198 3198 3197 3196 3196 3196 3195 3195 3194 3193 3193 3193 3193 3192 3192 3191 3191 3190 3190
3163 3163 3164 3165 3166 3167 3168 3169 3171 3172 3173 3174 3175 3175 3176 3176 3177 3179 3180 3180 3180 3180 3180 3180 3181 3182 3181 3181 3182 3182 3183 3184 3184 3185 3186 3187 3187 3187 3188 3189 3190 3190 3191 3192 3193 3193 3194 3195 3195 3196 3196 3196 3197 3197 3197 3197 3198 3198 3198 3198 3198 3198 3198 3198 3197 3197 3197 3196 3196 3195 3195 3195 3195 3194 3193 3192 3192 3192 3192 3192 3191 3191 3190 3190 3190
3163 3164 3164 3165 3165 3166 3167 3168 3169 3170 3170 3171 3173 3173 3174 3175 3176 3177 3179 3179 3180 3180 3180 3180 3180 3181 3180 3180 3180 3181 3182 3182 3183 3184 3184 3185 3185 3186 3186 3186 3187 3188 3189 3190 3190 3191 3192 3193 3194 3194 3194 3195 3195 3195 3196 3196 3196 3196 3197 3197 3197 3196 3196 3196 3196 3196 3196 3195 3194 3194 3194 3194 3193 3193 3192 3191 3191 3191 3191 3191 3190 3190 3189 3189 3189
3163 3163 3164 3165 3165 3165 3166 3167 3168 3168 3169 3169 3171 3172 3173 3174 3175 3176 3177 3178 3178 3179 3179 3179 3179 3179 3179 3178 3178 3179 3179 3180 3181 3182 3182 3183 3184 3184 3184 3184 3185 3185 3186 3187 3188 3189 3190 3191 3192 3192 3192 3193 3193 3193 3194 3194 3194 3195 3195 3195 3195 3195 3195 3195 3195 3195 3194 3193 3193 3193 3193 3192 3192 3191 3191 3190 3190 3190 3190 3189 3189 3189 3188 3188 3188
3162 3163 3163 3164 3165 3165 3166 3166 3167 3168 3169 3169 3170 3171 3172 3173 3174 3174 3175 3176 3176 3177 3177 3177 3177 3177 3177 3176 3177 3177 3177 3178 3179 3179 3180 3181 3182 3182 3183 3183 3183 3184 3184 3185 3185 3186 3187 3188 3189 3190 3190 3191 3191 3191 3192 3192 3192 3193 3193 3193 3193 3193 3193 3194 3194 3193 3193 3192 3191 3191 3191 3191 3190 3190 3189 3189 3189 3189 3188 3188 3187 3187 3187 3187 3187
3162 3162 3163 3164 3165 3165 3166 3166 3167 3168 3168 3168 3169 3170 3171 3172 3172 3173 3173 3174 3174 3174 3174 3174 3174 3174 3174 3175 3175 3176 3176 3176 3177 3177 3178 3178 3179 3180 3180 3181 3182 3182 3183 3183 3184 3184 3185 3186 3187 3187 3188 3188 3189 3189 3190 3190 3190 3190 3191 3191 3191 3191 3191 3192 3192 3191 3191 3190 3190 3189 3189 3189 3189 3189 3188 3188 3188 3187 3187 3186 3186 3186 3186 3186 3186
3161 3162 3162 3163 3164 3165 3165 3165 3166 3166 3167 3167 3168 3169 3170 3171 3171 3171 3171 3171 3171 3172 3171 3171 3171 3171 3172 3173 3174 3174 3175 3175 3175 3175 3176 3176 3177 3177 3178 3178 3179 3180 3181 3182 3182 3183 3183 3184 3185 3185 3186 3186 3187 3187 3188 3188 3188 3188 3189 3189 3189 3189 3189 3189 3189 3189 3189 3189 3188 3187 3187 3187 3187 3187 3187 3186 3186 3186 3185 3185 3185 3184 3184 3184 3184
3161 3161 3162 3162 3163 3163 3164 3164 3165 3165 3166 3166 3167 3167 3168 3168 3168 3168 3167 3167 3168 3169 3169 3169 3169 3170 3170 3171 3172 3173 3173 3173 3173 3173 3174 3174 3175 3175 3175 3175 3176 3177 3178 3179 3180 3180 3181 3182 3182 3183 3184 3184 3185 3185 3186 3186 3186 3187 3186 3186 3187 3187 3187 3187 3187 3187 3187 3186 3185 3185 3185 3185 3185 3185 3184 3184 3184 3184 3184 3184 3183 3183 3183 3183 3183
3160 3161 3161 3161 3162 3162 3162 3163 3163 3164 3164 3164 3164 3164 3165 3165 3165 3165 3165 3165 3165 3166 3167 3167 3168 3168 3169 3170 3170 3171 3171 3171 3171 3171 3171 3171 3172 3173 3173 3173 3174 3174 3175 3176 3177 3177 3178 3179 3180 3180 3181 3181 3182 3183 3183 3184 3184 3184 3184 3184 3184 3185 3185 3185 3185 3184 3184 3184 3183 3183 3183 3183 3183 3182 3182 3182 3182 3182 3182 3182 3181 3181 3181 3181 3181
3159 3160 3160 3160 3160 3161 3161 3161 3161 3161 3161 3161 3161 3161 3162 3162 3162 3162 3162 3163 3163 3164 3164 3165 3165 3166 3167 3167 3168 3168 3169 3169 3169 3168 3169 3169 3170 3170 3171 3171 3172 3172 3173 3173 3174 3174 3175 3176 3177 3177 3178 3179 3180 3180 3181 3181 3182 3182 3182 3182 3182 3182 3182 3182 3182 3182 3181 3181 3181 3181 3181 3181 3181 3181 3181 3180 3180 3179 3179 3180 3180 3180 3179 3179 3179
3158 3158 3158 3158 3159 3159 3159 3159 3159 3159 3159 3159 3159 3159 3160 3160 3160 3160 3160 3161 3161 3161 3162 3162 3163 3163 3164 3164 3165 3165 3166 3166 3166 3166 3166 3167 3167 3167 3168 3169 3169 3170 3170 3171 3171 3172 3172 3173 3174 3175 3176 3177 3177 3178 3178 3179 3179 3179 3179 3179 3180 3179 3179 3179 3179 3179 3179 3179 3178 3179 3179 3178 3178 3178 3178 3178 3177 3177 3177 3177 3177 3177 3176 3176 3176
3157 3157 3157 3157 3157 3157 3158 3158 3158 3158 3158 3158 3158 3158 3158 3158 3158 3158 3158 3158 3159 3159 3159 3160 3160 3160 3161 3161 3162 3162 3163 3163 3164 3164 3164 3164 3164 3165 3165 3166 3167 3167 3167 3168 3169 3169 3169 3170 3171 3172 3173 3174 3174 3175 3175 3176 3176 3177 3177 3177 3177 3177 3177 3177 3176 3176 3176 3175 3175 3176 3176 3175 3175 3175 3175 3175 3175 3175 3175 3175 3175 3174 3174 3173 3173
3157 3157 3157 3157 3157 3157 3157 3157 3157 3157 3157 3156 3157 3157 3157 3157 3157 3157 3157 3157 3157 3157 3157 3157 3158 3158 3158 3158 3159 3160 3160 3160 3161 3161 3161 3161 3162 3162 3163 3163 3164 3164 3165 3165 3165 3165 3166 3168 3169 3169 3170 3170 3171 3171 3172 3173 3173 3173 3173 3174 3174 3174 3174 3174 3173 3172 3172 3172 3172 3172 3172 3172 3172 3171 3171 3172 3172 3172 3172 3172 3172 3171 3171 3170 3170
3156 3157 3157 3157 3157 3156 3156 3156 3156 3155 3155 3155 3155 3155 3155 3155 3155 3155 3155 3155 3155 3155 3155 3155 3155 3155 3156 3156 3156 3156 3157 3157 3157 3157 3157 3158 3158 3159 3159 3160 3160 3161 3161 3161 3161 3162 3165 3166 3166 3166 3167 3167 3167 3168 3169 3169 3169 3170 3170 3170 3170 3171 3171 3171 3170 3169 3169 3169 3169 3169 3169 3168 3166 3166 3169 3171 3170 3170 3169 3169 3168 3168 3168 3167 3167
3155 3156 3156 3156 3156 3156 3155 3155 3155 3154 3154 3154 3154 3154 3154 3154 3154 3153 3153 3153 3153 3153 3153 3153 3153 3153 3153 3153 3153 3153 3153 3153 3153 3154 3154 3154 3155 3155 3156 3156 3157 3157 3157 3157 3158 3161 3163 3162 3162 3162 3163 3164 3164 3165 3165 3165 3165 3166 3166 3166 3167 3167 3168 3168 3167 3166 3166 3166 3165 3165 3165 3163 3161 3162 3166 3169 3168 3166 3165 3164 3164 3164 3164 3163 3163
3154 3154 3154 3154 3154 3154 3154 3154 3154 3153 3153 3153 3152 3152 3152 3152 3152 3151 3151 3151 3151 3151 3150 3150 3150 3150 3150 3150 3150 3150 3150 3150 3150 3150 3150 3150 3151 3152 3152 3153 3154 3154 3153 3154 3156 3158 3158 3158 3158 3159 3160 3160 3161 3161 3161 3162 3162 3162 3162 3162 3163 3164 3164 3164 3163 3163 3163 3162 3162 3162 3161 3159 3158 3159 3162 3164 3163 3160 3160 3160 3161 3161 3160 3160 3160
3154 3154 3153 3153 3153 3153 3153 3153 3152 3152 3152 3151 3151 3151 3150 3150 3150 3149 3149 3149 3148 3148 3148 3147 3147 3147 3147 3147 3146 3146 3146 3146 3146 3146 3146 3146 3146 3147 3148 3149 3150 3150 3150 3151 3153 3154 3153 3153 3155 3156 3156 3156 3157 3157 3158 3158 3158 3158 3158 3158 3159 3160 3161 3160 3159 3159 3159 3158 3158 3158 3158 3157 3156 3156 3157 3158 3157 3155 3155 3155 3155 3155 3156 3155 3155
3153 3153 3153 3152 3152 3151 3151 3151 3151 3150 3150 3150 3149 3149 3149 3148 3148 3147 3147 3146 3146 3145 3145 3145 3144 3144 3144 3143 3143 3143 3143 3143 3142 3142 3142 3142 3142 3143 3144 3145 3145 3146 3146 3147 3149 3150 3149 3150 3151 3151 3152 3152 3153 3153 3154 3154 3154 3154 3154 3155 3155 3156 3157 3156 3155 3155 3155 3154 3154 3155 3155 3154 3154 3153 3153 3152 3151 3151 3153 3152 3151 3151 3152 3151 3150
3152 3152 3152 3151 3151 3150 3150 3149 3149 3149 3149 3148 3148 3147 3147 3146 3146 3145 3145 3144 3144 3143 3142 3142 3142 3141 3141 3140 3139 3139 3139 3139 3139 3139 3139 3138 3139 3139 3139 3140 3141 3142 3142 3143 3144 3145 3146 3146 3147 3147 3148 3148 3149 3149 3149 3149 3150 3150 3150 3151 3151 3152 3152 3152 3152 3151 3151 3151 3151 3151 3151 3150 3150 3149 3149 3148 3147 3147 3149 3150 3149 3147 3147 3148 3147
3151 3151 3150 3150 3149 3149 3148 3148 3148 3147 3147 3147 3146 3146 3145 3145 3144 3144 3143 3142 3141 3141 3140 3140 3139 3139 3138 3137 3136 3136 3136 3136 3135 3135 3135 3135 3135 3135 3136 3136 3137 3137 3138 3139 3140 3141 3142 3142 3143 3143 3144 3144 3144 3145 3145 3145 3146 3146 3146 3147 3147 3148 3148 3148 3148 3147 3147 3147 3147 3146 3146 3146 3145 3145 3145 3145 3144 3143 3143 3144 3144 3143 3142 3143 3144
3150 3149 3149 3148 3148 3148 3147 3147 3146 3146 3146 3145 3145 3144 3144 3143 3142 3142 3141 3140 3139 3139 3138 3137 3137 3136 3135 3134 3134 3133 3133 3132 3131 3131 3131 3132 3132 3132 3133 3133 3133 3134 3135 3135 3135 3136 3137 3138 3138 3139 3139 3140 3140 3141 3141 3142 3142 3142 3143 3143 3143 3144 3144 3144 3144 3143 3143 3143 3143 3142 3142 3142 3141 3141 3141 3141 3140 3140 3139 3139 3140 3140 3139 3140 3140
3148 3148 3148 3147 3147 3146 3146 3146 3145 3145 3144 3144 3143 3142 3142 3141 3140 3140 3139 3138 3137 3136 3135 3135 3134 3133 3132 3131 3131 3130 3129 3128 3128 3127 3127 3128 3128 3128 3129 3129 3130 3130 3131 3131 3132 3132 3133 3134 3134 3135 3135 3136 3137 3137 3138 3138 3139 3139 3139 3139 3139 3139 3139 3139 3139 3139 3139 3139 3139 3138 3138 3138 3138 3137 3137 3136 3136 3136 3136 3136 3136 3136 3136 3136 3136
3147 3146 3146 3146 3145 3145 3144 3144 3144 3143 3143 3142 3141 3141 3140 3139 3138 3137 3136 3135 3134 3133 3132 3131 3131 3130 3129 3128 3127 3126 3125 3125 3124 3123 3123 3123 3124 3124 3125 3126 3126 3127 3127 3128 3129 3129 3130 3130 3131 3131 3132 3132 3133 3134 3134 3135 3135 3135 3135 3135 3135 3135 3135 3135 3135 3135 3135 3135 3134 3134 3134 3134 3133 3133 3133 3132 3132 3132 3132 3132 3132 3132 3132 3133 3133
3145 3145 3144 3144 3144 3143 3143 3143 3142 3142 3141 3141 3140 3139 3138 3137 3136 3135 3134 3133 3132 3131 3130 3129 3128 3127 3126 3125 3124 3123 3122 3121 3121 3120 3119 3120 3120 3121 3121 3122 3122 3123 3124 3125 3125 3126 3127 3127 3127 3128 3129 3129 3130 3131 3131 3131 3131 3131 3131 3131 3131 3131 3131 3131 3131 3131 3131 3131 3130 3130 3130 3130 3129 3129 3129 3129 3129 3129 3128 3128 3129 3129 3129 3130 3130
3144 3143 3143 3142 3142 3142 3142 3141 3141 3141 3141 3140 3139 3138 3137 3136 3135 3134 3133 3132 3131 3130 3128 3127 3126 3125 3124 3123 3122 3120 3119 3118 3117 3117 3117 3117 3117 3117 3118 3118 3119 3119 3120 3121 3122 3122 3123 3124 3124 3125 3126 3127 3127 3128 3128 3127 3127 3128 3128 3128 3128 3128 3128 3128 3127 3127 3127 3127 3127 3127 3126 3126 3126 3126 3126 3125 3126 3126 3126 3126 3126 3127 3127 3128 3128
3142 3142 3141 3141 3141 3140 3140 3140 3140 3141 3140 3139 3138 3137 3136 3135 3134 3132 3131 3130 3129 3128 3127 3126 3124 3123 3122 3121 3119 3118 3117 3116 3115 3115 3114 3114 3114 3115 3115 3115 3116 3116 3117 3118 3119 3119 3120 3121 3122 3123 3123 3124 3124 3124 3124 3124 3124 3124 3124 3124 3125 3125 3125 3125 3124 3124 3124 3124 3124 3123 3123 3123 3123 3123 3123 3123 3123 3124 3124 3125 3125 3126 3126 3127 3128
3141 3140 3140 3140 3139 3139 3139 3140 3140 3140 3139 3138 3137 3136 3135 3134 3133 3132 3130 3129 3128 3127 3126 3124 3123 3122 3120 3119 3118 3117 3116 3115 3114 3113 3113 3112 3112 3113 3113 3113 3113 3114 3114 3115 3116 3117 3118 3119 3119 3120 3120 3121 3121 3121 3121 3121 3121 3121 3121 3121 3121 3122 3122 3122 3121 3121 3121 3121 3121 3121 3121 3121 3121 3121 3121 3122 3122 3123 3124 3124 3125 3125 3126 3126 3126
3140 3139 3139 3139 3138 3138 3139 3139 3139 3139 3138 3137 3136 3135 3134 3133 3132 3131 3130 3129 3127 3126 3125 3124 3122 3121 3120 3119 3117 3116 3115 3114 3113 3112 3112 3111 3111 3111 3111 3111 3112 3112 3113 3114 3115 3115 3116 3116 3117 3117 3118 3118 3118 3118 3118 3118 3118 3119 3119 3119 3119 3119 3119 3119 3119 3119 3118 3119 3119 3119 3119 3120 3120 3120 3121 3122 3123 3123 3124 3124 3124 3124 3124 3125 3125
3138 3138 3138 3138 3137 3137 3137 3138 3138 3138 3137 3136 3135 3134 3133 3132 3131 3130 3129 3128 3127 3126 3125 3124 3122 3121 3120 3119 3117 3116 3115 3114 3113 3112 3112 3111 3111 3111 3111 3111 3111 3111 3112 3113 3113 3114 3114 3115 3115 3116 3116 3116 3116 3116 3116 3116 3116 3116 3116 3116 3116 3116 3116 3116 3116 3116 3117 3117 3117 3118 3118 3119 3120 3121 3121 3122 3123 3123 3123 3123 3123 3123 3123 3124 3124
3137 3137 3137 3137 3136 3136 3136 3136 3136 3136 3136 3135 3135 3134 3133 3132 3131 3130 3129 3129 3128 3127 3125 3124 3123 3122 3121 3119 3118 3117 3115 3114 3113 3113 3112 3112 3111 3111 3111 3111 3111 3111 3112 3112 3113 3113 3114 3114 3114 3115 3115 3115 3115 3115 3115 3114 3114 3114 3114 3114 3114 3114 3114 3114 3115 3115 3115 3116 3117 3118 3119 3120 3121 3121 3122 3122 3123 3122 3122 3122 3122 3123 3123 3124 3124
3136 3135 3135 3135 3135 3134 3134 3134 3135 3135 3135 3134 3134 3133 3132 3131 3130 3130 3130 3129 3129 3128 3127 3126 3125 3123 3122 3120 3119 3117 3116 3115 3114 3113 3113 3112 3112 3111 3111 3111 3111 3111 3112 3112 3113 3113 3113 3113 3113 3114 3114 3114 3114 3114 3113 3113 3113 3113 3113 3113 3113 3113 3114 3114 3114 3115 3115 3117 3118 3119 3120 3120 3121 3122 3122 3122 3122 3122 3122 3123 3123 3123 3124 3125 3125
3135 3134 3133 3133 3133 3133 3133 3133 3133 3134 3134 3133 3132 3132 3131 3130 3130 3130 3129 3129 3129 3129 3128 3128 3127 3125 3124 3122 3121 3119 3118 3116 3116 3115 3114 3113 3112 3112 3111 3111 3112 3112 3112 3112 3112 3112 3113 3113 3113 3113 3114 3114 3114 3114 3114 3114 3114 3114 3114 3114 3114 3114 3115 3115 3115 3116 3117 3118 3119 3120 3120 3121 3121 3122 3122 3122 3123 3123 3124 3124 3124 3125 3125 3126 3126
3134 3133 3132 3132 3131 3131 3131 3132 3132 3132 3133 3132 3131 3131 3130 3130 3129 3129 3129 3129 3129 3129 3129 3129 3128 3127 3126 3124 3123 3121 3119 3118 3117 3117 3116 3116 3115 3114 3114 3113 3113 3113 3113 3113 3113 3113 3114 3114 3114 3115 3115 3116 3116 3116 3116 3116 3116 3116 3115 3115 3116 3116 3116 3117 3117 3117 3118 3119 3119 3120 3121 3121 3122 3123 3123 3124 3124 3124 3125 3125 3125 3126 3126 3127 3127
3132 3132 3131 3130 3130 3130 3130 3130 3131 3131 3131 3131 3130 3130 3129 3129 3129 3128 3128 3128 3128 3129 3129 3129 3129 3128 3127 3126 3124 3123 3121 3120 3119 3118 3118 3118 3117 3117 3117 3116 3116 3116 3116 3116 3116 3116 3116 3116 3117 3117 3117 3117 3118 3118 3118 3118 3118 3118 3118 3117 3117 3117 3118 3118 3118 3119 3119 3120 3120 3121 3122 3123 3123 3124 3124 3124 3125 3125 3125 3125 3126 3126 3126 3127 3127
3131 3130 3129 3129 3128 3128 3129 3129 3129 3130 3130 3130 3129 3128 3128 3128 3128 3128 3128 3127 3128 3128 3128 3128 3128 3128 3127 3126 3125 3124 3123 3122 3121 3120 3119 3119 3119 3119 3119 3119 3119 3118 3118 3118 3118 3118 3118 3118 3118 3118 3118 3119 3119 3119 3119 3119 3119 3119 3119 3119 3119 3119 3119 3119 3120 3120 3121 3121 3122 3122 3123 3123 3124 3124 3124 3124 3125 3125 3125 3125 3125 3126 3126 3127 3127
3128 3128 3128 3127 3126 3127 3127 3127 3128 3128 3128 3128 3128 3127 3127 3127 3127 3127 3127 3127 3127 3127 3127 3128 3128 3128 3127 3126 3126 3125 3124 3123 3122 3121 3120 3120 3120 3120 3119 3119 3120 3120 3120 3120 3120 3120 3120 3120 3120 3120 3119 3120 3120 3120 3120 3120 3120 3120 3120 3120 3120 3120 3120 3120 3121 3121 3122 3122 3122 3123 3123 3124 3124 3124 3125 3125 3125 3125 3125 3125 3125 3126 3126 3126 3127
3126 3126 3126 3125 3125 3125 3125 3126 3126 3126 3127 3127 3127 3126 3126 3125 3125 3125 3126 3126 3126 3126 3127 3127 3127 3127 3127 3126 3126 3125 3124 3123 3123 3122 3121 3121 3121 3121 3120 3120 3120 3120 3120 3120 3121 3121 3121 3120 3120 3120 3120 3120 3120 3121 3120 3120 3120 3120 3120 3120 3121 3121 3121 3121 3121 3122 3122 3122 3122 3123 3123 3123 3124 3124 3124 3124 3125 3125 3125 3125 3125 3125 3125 3126 3126
3124 3124 3124 3123 3123 3123 3123 3124 3125 3125 3125 3125 3125 3125 3124 3124 3124 3124 3125 3125 3125 3125 3126 3126 3126 3126 3127 3126 3126 3125 3124 3124 3123 3122 3122 3121 3121 3121 3121 3121 3120 3120 3120 3120 3120 3121 3121 3121 3120 3121 3121 3121 3121 3121 3121 3121 3121 3121 3121 3121 3121 3121 3121 3122 3122 3122 3122 3122 3123 3123 3123 3123 3123 3124 3124 3124 3124 3124 3125 3125 3125 3125 3125 3125 3125
3122 3122 3121 3121 3121 3121 3121 3122 3123 3124 3124 3124 3124 3123 3123 3123 3123 3123 3123 3124 3124 3124 3125 3125 3125 3125 3126 3126 3126 3125 3124 3124 3123 3122 3121 3121 3121 3121 3121 3121 3120 3120 3120 3120 3120 3120 3121 3121 3121 3121 3121 3121 3121 3121 3121 3121 3121 3121 3121 3121 3121 3122 3122 3122 3122 3122 3122 3122 3123 3123 3123 3123 3123 3123 3123 3124 3124 3124 3124 3124 3124 3124 3125 3125 3125
3120 3120 3120 3119 3119 3120 3120 3121 3122 3122 3122 3122 3122 3122 3121 3121 3121 3121 3122 3122 3123 3123 3123 3124 3124 3124 3124 3125 3125 3125 3124 3123 3123 3122 3121 3121 3120 3120 3120 3120 3120 3120 3120 3120 3120 3120 3121 3121 3121 3121 3121 3121 3121 3121 3121 3121 3121 3121 3121 3121 3122 3122 3122 3122 3122 3122 3122 3122 3122 3122 3122 3122 3122 3122 3123 3123 3123 3123 3123 3123 3123 3123 3123 3124 3124
3118 3118 3118 3118 3118 3118 3118 3119 3120 3120 3120 3120 3120 3120 3120 3119 3119 3120 3120 3121 3121 3122 3122 3122 3122 3123 3123 3123 3123 3124 3123 3123 3123 3122 3121 3121 3120 3120 3119 3119 3119 3119 3119 3120 3120 3120 3120 3120 3121 3121 3121 3121 3121 3121 3121 3121 3121 3121 3121 3121 3121 3121 3122 3122 3122 3122 3122 3121 3121 3121 3121 3122 3122 3122 3122 3122 3122 3122 3122 3122 3122 3122 3122 3123 3123
3116 3115 3115 3115 3115 3116 3116 3117 3117 3118 3118 3118 3118 3118 3118 3118 3118 3118 3119 3119 3120 3120 3121 3120 3121 3121 3121 3121 3122 3122 3122 3122 3122 3121 3121 3121 3120 3120 3120 3119 3119 3119 3119 3119 3119 3119 3119 3120 3120 3120 3120 3120 3121 3121 3121 3121 3121 3121 3121 3121 3121 3121 3121 3121 3121 3121 3121 3121 3121 3121 3121 3121 3121 3121 3121 3121 3121 3121 3121 3121 3121 3121 3122 3122 3122
3113 3112 3113 3113 3113 3113 3114 3114 3115 3115 3115 3115 3115 3116 3116 3116 3117 3117 3117 3118 3118 3119 3120 3119 3119 3119 3119 3119 3119 3120 3120 3120 3120 3120 3120 3119 3120 3120 3119 3119 3119 3119 3119 3119 3118 3118 3118 3119 3119 3119 3119 3120 3120 3120 3120 3120 3120 3120 3120 3120 3120 3120 3120 3120 3120 3120 3120 3120 3120 3120 3120 3120 3121 3121 3120 3120 3120 3120 3120 3120 3120 3120 3121 3121 3121
3110 3110 3110 3110 3111 3111 3111 3112 3112 3112 3112 3112 3113 3113 3114 3114 3115 3115 3115 3116 3117 3117 3118 3118 3118 3118 3117 3118 3117 3117 3118 3118 3118 3118 3118 3118 3118 3118 3118 3118 3118 3118 3118 3118 3117 3117 3117 3117 3117 3118 3118 3118 3119 3119 3119 3119 3119 3119 3119 3120 3120 3120 3120 3120 3120 3120 3120 3120 3120 3120 3120 3120 3120 3120 3120 3120 3119 3119 3119 3119 3119 3119 3119 3119 3119
3107 3107 3108 3108 3108 3109 3109 3109 3109 3109 3109 3109 3110 3111 3111 3112 3112 3113 3113 3113 3114 3115 3116 3116 3116 3116 3116 3116 3116 3116 3116 3116 3116 3116 3116 3116 3116 3116 3116 3116 3116 3116 3116 3116 3116 3116 3116 3116 3116 3116 3117 3117 3117 3117 3117 3118 3118 3118 3118 3119 3119 3119 3119 3119 3119 3119 3119 3119 3119 3119 3119 3119 3119 3119 3119 3119 3118 3118 3118 3118 3118 3118 3117 3117 3117
3104 3105 3105 3105 3106 3106 3107 3107 3106 3106 3106 3106 3107 3108 3109 3109 3110 3110 3110 3111 3111 3112 3113 3113 3113 3114 3114 3114 3114 3113 3113 3114 3114 3114 3114 3114 3114 3114 3114 3114 3114 3114 3114 3114 3114 3114 3114 3114 3115 3115 3115 3115 3115 3115 3116 3116 3116 3117 3117 3117 3117 3117 3118 3118 3118 3118 3118 3118 3118 3118 3118 3118 3118 3117 3117 3117 3117 3117 3117 3117 3116 3116 3116 3116 3115
3102 3102 3102 3103 3103 3104 3104 3104 3103 3103 3103 3103 3104 3105 3106 3107 3107 3108 3108 3108 3109 3110 3110 3111 3111 3111 3111 3112 3111 3111 3111 3111 3111 3111 3111 3111 3111 3111 3111 3111 3111 3112 3112 3112 3112 3112 3112 3112 3113 3113 3113 3113 3113 3114 3114 3114 3114 3115 3115 3115 3116 3116 3116 3116 3116 3116 3117 3117 3117 3117 3117 3117 3116 3116 3116 3115 3115 3115 3115 3115 3115 3114 3114 3114 3113
3099 3099 3100 3101 3101 3101 3101 3101 3101 3100 3100 3101 3101 3102 3103 3104 3105 3105 3105 3106 3106 3107 3108 3108 3108 3109 3109 3109 3109 3109 3109 3109 3109 3108 3108 3108 3108 3108 3108 3108 3108 3109 3109 3109 3110 3110 3110 3111 3111 3111 3111 3111 3111 3111 3112 3112 3112 3113 3113 3113 3114 3114 3114 3114 3114 3114 3115 3115 3115 3115 3115 3115 3115 3114 3114 3113 3113 3113 3113 3113 3112 3112 3112 3111 3111
3096 3097 3098 3098 3099 3098 3098 3098 3098 3098 3098 3098 3099 3100 3100 3101 3102 3102 3103 3103 3104 3105 3105 3106 3106 3107 3107 3107 3107 3107 3107 3107 3107 3106 3106 3105 3105 3105 3106 3106 3106 3106 3106 3106 3107 3107 3108 3108 3109 3108 3108 3109 3109 3109 3109 3110 3110 3110 3111 3111 3112 3112 3112 3112 3112 3112 3112 3112 3112 3112 3113 3113 3112 3112 3112 3111 3111 3111 3110 3110 3110 3109 3109 3109 3108